Hourly Data Report for August 30, 2020

TORONTO CITY
ONTARIO
Current Station Operator: ECCC - MSC

43°40'00.000" N
79°24'00.000" W
112.50 m
6158355
71508
XTO

Download Data

Hourly Data (August 2020)
Hourly Data Report for August 30, 2020
TIME
LST
Temp Definition
°C
Dew Point Definition
°C
Rel Hum Definition
%
Precip. Amount Definition
mm

Wind Dir Definition
10's deg

Wind Spd Definition
km/h
Visibility Definition
km
Stn Press Definition
kPa
Hmdx Definition


Wind Chill Definition


Weather Definition


00:00 17.9 10.5 62 0.0       99.11     LegendNANA
01:00 17.3 10.8 66 0.0       99.12     LegendNANA
02:00 16.9 11.1 68 0.0       99.16     LegendNANA
03:00 16.8 11.6 71 0.0       99.22     LegendNANA
04:00 16.8 11.4 70 0.0       99.29     LegendNANA
05:00 16.4 11.8 74 0.0       99.40     LegendNANA
06:00 16.2 12.0 76 0.0       99.49     LegendNANA
07:00 16.5 12.3 76 0.0       99.59     LegendNANA
08:00 18.0 11.7 66 0.0       99.67     LegendNANA
09:00 18.8 9.8 56 0.0       99.72     LegendNANA
10:00 20.1 7.8 45 0.0       99.76     LegendNANA
11:00 21.8 7.4 39 0.0       99.82     LegendNANA
12:00 22.2 8.1 40 0.0       99.83     LegendNANA
13:00 22.4 7.4 38 0.0       99.87     LegendNANA
14:00 20.0 10.5 54 0.0       99.88     LegendNANA
15:00 21.5 8.4 43 0.0       99.87     LegendNANA
16:00 22.0 10.2 47 0.0       99.86     LegendNANA
17:00 20.8 9.9 50 0.0       99.88     LegendNANA
18:00 20.2 10.4 53 0.0       99.93     LegendNANA
19:00 19.2 10.0 55 0.0       99.97     LegendNANA
20:00 18.6 10.5 59 0.0       100.02     LegendNANA
21:00 17.9 10.7 63 0.0       100.06     LegendNANA
22:00 17.5 10.8 65 0.0       100.10     LegendNANA
23:00 18.3 10.4 60 0.0       100.15     LegendNANA

Notes on Data Quality.

Legend

  • E = Estimated
  • M = Missing
  • NA = Not Available*
  • [empty] = Indicates an unobserved value
Date modified: